Volver al catálogo

CZ-6A DEB

ActivoPO
NORAD 60643·DEBRIS·🇨🇳 China

Lanzado Aug 6, 2024 desde Taiyuan Satellite Launch Center

Loading…

Próximos Pases (próximas 24 horas)

TLE

ActualizadoSource: Space-Track

Época: Sep 13, 2026, 17:33 UTC

1 60643U 24140AU  26256.73163151  .00002804  00000-0  78222-3 0  9996
2 60643  88.9659 258.6679 0050936  44.4773 316.0503 14.45295678110541

Sigue CZ-6A DEB en tiempo real con AllMySat

Download on the App Store